TimeAKDT,TemperatureF,Dew PointF,Humidity,Sea Level PressureIn,VisibilityMPH,Wind Direction,Wind SpeedMPH,Gust SpeedMPH,PrecipitationIn,Events,Conditions,WindDirDegrees,DateUTC
12:18 AM,-0.4,-4.0,85,30.00,2.0,ENE,9.2,-,N/A,,Overcast,60,2014-03-29 08:18:00
12:56 AM,1.4,-2.2,85,29.99,1.8,ENE,12.7,-,N/A,,Overcast,60,2014-03-29 08:56:00
1:03 AM,1.4,-2.2,85,29.99,2.5,ENE,12.7,-,N/A,,Mostly Cloudy,60,2014-03-29 09:03:00
1:12 AM,1.4,-2.2,85,29.99,3.0,ENE,13.8,-,N/A,,Scattered Clouds,60,2014-03-29 09:12:00
1:56 AM,2.1,-1.8,83,30.00,5.0,ENE,13.8,-,N/A,,Clear,60,2014-03-29 09:56:00
2:56 AM,0.1,-4.0,83,30.00,3.0,ENE,12.7,-,N/A,,Clear,60,2014-03-29 10:56:00
3:31 AM,-0.4,-5.8,78,29.99,2.5,NE,12.7,-,N/A,,Partly Cloudy,50,2014-03-29 11:31:00
3:56 AM,-2.2,-7.6,78,29.98,1.8,NE,16.1,-,N/A,,Mostly Cloudy,40,2014-03-29 11:56:00
4:10 AM,-2.2,-7.6,78,29.98,2.0,NE,15.0,-,N/A,,Haze,50,2014-03-29 12:10:00
4:35 AM,-2.2,-7.6,78,29.98,3.0,NE,13.8,-,N/A,,Partly Cloudy,40,2014-03-29 12:35:00
4:56 AM,-2.9,-6.9,83,29.99,2.5,NE,15.0,-,N/A,,Mostly Cloudy,40,2014-03-29 12:56:00
5:24 AM,-2.2,-7.6,78,29.96,1.5,NE,15.0,-,N/A,,Mostly Cloudy,50,2014-03-29 13:24:00
5:47 AM,-2.2,-7.6,78,29.96,1.8,NE,15.0,-,N/A,,Clear,50,2014-03-29 13:47:00
5:56 AM,-2.9,-8.0,79,29.98,2.0,NE,15.0,-,N/A,,Haze,50,2014-03-29 13:56:00
6:07 AM,-4.0,-9.4,78,29.97,1.8,NE,15.0,-,N/A,,Haze,50,2014-03-29 14:07:00
6:25 AM,-4.0,-7.6,85,29.96,1.0,NE,13.8,-,N/A,,Mostly Cloudy,50,2014-03-29 14:25:00
6:39 AM,-2.2,-5.8,85,29.96,0.8,NE,17.3,-,N/A,,Overcast,50,2014-03-29 14:39:00
6:56 AM,-2.9,-6.9,83,29.97,1.0,NE,16.1,-,N/A,,Overcast,50,2014-03-29 14:56:00
7:04 AM,-2.2,-7.6,78,29.95,1.2,NE,17.3,-,N/A,,Overcast,50,2014-03-29 15:04:00
7:14 AM,-2.2,-7.6,78,29.96,1.0,NE,17.3,-,N/A,,Haze,50,2014-03-29 15:14:00
7:27 AM,-2.2,-5.8,85,29.96,1.2,NE,16.1,-,N/A,,Overcast,50,2014-03-29 15:27:00
7:45 AM,-2.2,-7.6,78,29.96,0.8,NE,16.1,-,N/A,,Overcast,40,2014-03-29 15:45:00
7:56 AM,-2.9,-6.9,83,29.98,0.8,NE,16.1,-,N/A,,Overcast,40,2014-03-29 15:56:00
8:05 AM,-2.2,-7.6,78,29.96,1.0,NE,15.0,-,N/A,,Overcast,50,2014-03-29 16:05:00
8:48 AM,-4.0,-7.6,85,29.96,1.2,NE,16.1,-,N/A,,Overcast,40,2014-03-29 16:48:00
8:56 AM,-4.0,-8.0,83,29.98,1.2,NE,16.1,-,N/A,,Overcast,40,2014-03-29 16:56:00
9:08 AM,-4.0,-7.6,85,29.96,1.0,NE,17.3,-,N/A,,Overcast,50,2014-03-29 17:08:00
9:21 AM,-4.0,-7.6,85,29.96,0.8,NE,17.3,-,N/A,,Overcast,40,2014-03-29 17:21:00
9:40 AM,-4.0,-7.6,85,29.96,1.0,NE,17.3,-,N/A,,Overcast,40,2014-03-29 17:40:00
9:56 AM,-4.0,-7.6,85,29.97,0.8,ENE,15.0,-,N/A,,Mostly Cloudy,60,2014-03-29 17:56:00
10:39 AM,-2.2,-7.6,78,29.97,1.0,NE,12.7,-,N/A,,Overcast,50,2014-03-29 18:39:00
10:56 AM,-1.8,-6.9,79,29.98,1.0,NE,13.8,-,N/A,,Haze,50,2014-03-29 18:56:00
11:18 AM,-2.2,-5.8,85,29.96,0.8,NE,16.1,-,N/A,,Overcast,50,2014-03-29 19:18:00
11:26 AM,-0.4,-5.8,78,29.96,1.0,NE,16.1,-,N/A,,Overcast,40,2014-03-29 19:26:00
11:56 AM,0.1,-4.0,83,29.98,-9999.0,NE,13.8,-,N/A,,Overcast,50,2014-03-29 19:56:00
12:56 PM,1.0,-2.9,83,29.98,-9999.0,NE,18.4,-,N/A,,Overcast,50,2014-03-29 20:56:00
1:56 PM,2.1,-1.8,83,29.98,0.8,ENE,15.0,-,N/A,,Overcast,60,2014-03-29 21:56:00
2:13 PM,1.4,-2.2,85,29.96,1.0,ENE,15.0,-,N/A,,Overcast,60,2014-03-29 22:13:00
2:23 PM,1.4,-2.2,85,29.96,0.8,NE,18.4,-,N/A,,Overcast,50,2014-03-29 22:23:00
2:42 PM,1.4,-2.2,85,29.96,0.5,NE,17.3,-,N/A,Fog,Light Freezing Fog,50,2014-03-29 22:42:00
2:56 PM,3.0,-1.8,80,29.98,0.8,ENE,15.0,-,N/A,,Haze,60,2014-03-29 22:56:00
3:08 PM,3.2,-2.2,78,29.96,1.0,NE,17.3,-,N/A,,Haze,50,2014-03-29 23:08:00
3:35 PM,3.2,-2.2,78,29.96,0.8,ENE,19.6,-,N/A,,Haze,60,2014-03-29 23:35:00
3:56 PM,1.4,-2.2,85,29.96,0.8,ENE,20.7,-,N/A,,Mostly Cloudy,60,2014-03-29 23:56:00
4:27 PM,1.4,-2.2,85,29.95,0.8,NE,19.6,-,N/A,,Haze,50,2014-03-30 00:27:00
4:56 PM,1.0,-2.9,83,29.96,1.0,NE,23.0,-,N/A,,Mist,50,2014-03-30 00:56:00
4:59 PM,1.4,-2.2,85,29.95,1.2,NE,19.6,26.5,N/A,,Clear,50,2014-03-30 00:59:00
5:04 PM,1.4,-2.2,85,29.94,1.0,ENE,18.4,-,N/A,,Mist,60,2014-03-30 01:04:00
5:20 PM,1.4,-2.2,85,29.95,1.2,ENE,17.3,-,N/A,,Clear,60,2014-03-30 01:20:00
5:28 PM,1.4,-2.2,85,29.95,1.0,ENE,17.3,-,N/A,,Clear,60,2014-03-30 01:28:00
5:37 PM,1.4,-2.2,85,29.95,1.5,ENE,17.3,-,N/A,,Clear,60,2014-03-30 01:37:00
5:43 PM,1.4,-2.2,85,29.95,2.0,NE,17.3,-,N/A,,Partly Cloudy,50,2014-03-30 01:43:00
5:56 PM,1.0,-4.0,79,29.96,1.0,ENE,18.4,-,N/A,,Haze,60,2014-03-30 01:56:00
6:08 PM,1.4,-4.0,78,29.95,1.5,NE,18.4,-,N/A,,Haze,50,2014-03-30 02:08:00
6:27 PM,-0.4,-5.8,78,29.95,2.0,NE,16.1,-,N/A,,Haze,50,2014-03-30 02:27:00
6:35 PM,1.4,-4.0,78,29.95,3.0,NE,17.3,-,N/A,,Haze,50,2014-03-30 02:35:00
6:42 PM,-0.4,-5.8,78,29.95,2.5,NE,18.4,-,N/A,,Haze,50,2014-03-30 02:42:00
6:49 PM,-0.4,-5.8,78,29.95,3.0,ENE,17.3,-,N/A,,Haze,60,2014-03-30 02:49:00
6:56 PM,-0.4,-5.8,78,29.95,2.5,ENE,18.4,-,N/A,,Haze,60,2014-03-30 02:56:00
7:09 PM,-0.4,-5.8,78,29.95,1.5,ENE,17.3,-,N/A,,Haze,60,2014-03-30 03:09:00
7:15 PM,-0.4,-5.8,78,29.94,3.0,NE,18.4,-,N/A,,Haze,50,2014-03-30 03:15:00
7:23 PM,-0.4,-5.8,78,29.95,2.5,NE,15.0,-,N/A,,Clear,50,2014-03-30 03:23:00
7:32 PM,-0.4,-5.8,78,29.95,3.0,ENE,18.4,-,N/A,,Haze,60,2014-03-30 03:32:00
7:34 PM,-0.4,-5.8,78,29.95,2.5,ENE,17.3,-,N/A,,Haze,60,2014-03-30 03:34:00
7:56 PM,-1.8,-6.9,79,29.96,3.0,NE,16.1,-,N/A,,Haze,50,2014-03-30 03:56:00
8:27 PM,-2.2,-7.6,78,29.95,2.0,ENE,15.0,-,N/A,,Clear,60,2014-03-30 04:27:00
8:38 PM,-2.2,-7.6,78,29.95,4.0,NE,16.1,-,N/A,,Haze,50,2014-03-30 04:38:00
8:56 PM,-4.0,-8.9,80,29.96,7.0,NE,15.0,-,N/A,,Clear,50,2014-03-30 04:56:00
9:56 PM,-4.9,-9.9,79,29.97,10.0,NE,12.7,-,N/A,,Clear,50,2014-03-30 05:56:00
10:38 PM,-5.8,-11.2,77,29.96,5.0,NE,11.5,-,N/A,,Haze,50,2014-03-30 06:38:00
10:47 PM,-5.8,-9.4,84,29.96,4.0,NE,9.2,-,N/A,,Mostly Cloudy,50,2014-03-30 06:47:00
10:56 PM,-6.0,-10.8,79,29.98,4.0,NE,10.4,-,N/A,,Haze,50,2014-03-30 06:56:00
11:18 PM,-5.8,-11.2,77,29.96,2.5,ENE,13.8,-,N/A,,Haze,60,2014-03-30 07:18:00
11:39 PM,-7.6,-11.2,84,29.96,4.0,NE,15.0,-,N/A,,Overcast,50,2014-03-30 07:39:00
11:56 PM,-6.9,-11.9,79,29.98,5.0,NE,9.2,-,N/A,,Haze,50,2014-03-30 07:56:00